Wind_Speed
40 40 39 39 38 38 38 38 38 36 35 33 33 34 34 35 35 35 35 35 36 36 37 38 39 39 39 40 41 42 41 40 40 40 42 42 43 44 44 44 44 45 45 45
41 41 41 41 39 38 38 38 37 37 35 33 34 35 35 35 36 36 36 36 37 37 38 38 39 39 39 40 41 41 40 39 39 39 40 40 41 43 43 43 42 43 44 45
42 41 42 42 39 39 39 38 38 38 35 34 35 35 35 35 36 36 36 37 38 38 38 38 38 38 38 39 40 39 38 38 38 38 38 39 40 41 41 41 41 42 42 43
42 41 42 39 39 39 39 38 38 38 37 37 37 36 36 37 37 37 37 38 38 38 38 38 38 38 38 39 39 39 38 37 38 38 38 39 39 40 40 40 40 41 41 42
40 41 41 39 38 38 39 39 38 38 38 38 38 37 37 37 38 38 38 38 38 38 38 38 39 39 38 38 38 38 38 38 38 38 38 38 39 40 39 40 40 40 40 40
38 40 40 37 36 37 38 39 38 38 38 38 37 37 36 36 37 37 37 38 38 37 37 38 38 38 38 38 38 38 37 37 38 38 38 38 38 39 38 38 37 37 37 37
37 39 39 37 36 35 36 36 36 37 38 38 38 37 37 37 37 37 37 37 37 38 38 37 38 38 38 38 38 38 37 37 37 37 37 36 37 37 37 37 36 35 35 36
35 37 36 36 36 36 35 34 35 36 36 37 37 37 37 38 38 37 37 37 37 38 37 37 37 37 37 38 38 37 36 36 35 35 35 36 36 36 36 36 34 34 34 34
34 33 33 34 36 36 36 36 36 35 35 36 36 37 37 37 37 37 37 37 37 37 36 36 36 37 37 37 37 35 34 34 34 33 34 34 35 34 34 34 34 33 33 33
32 32 31 32 33 34 35 35 35 35 34 35 34 35 35 35 35 36 36 35 35 35 35 35 36 36 36 35 35 34 34 34 33 32 32 33 33 33 33 33 33 33 33 32
30 30 30 31 32 33 34 34 34 34 34 34 35 35 34 34 34 34 34 33 33 33 34 34 35 36 36 35 35 34 33 33 32 32 31 32 32 32 33 33 32 31 31 30
28 28 29 30 31 31 32 32 33 33 33 32 33 34 33 34 34 34 34 33 33 34 34 35 35 36 36 35 35 33 32 31 31 31 30 30 31 31 32 32 31 31 30 28
28 28 28 29 30 30 31 31 32 33 33 32 32 33 33 33 33 33 33 34 34 35 35 35 35 35 34 34 32 31 31 30 29 29 29 29 29 29 29 29 29 28 27 26
27 27 26 27 28 29 30 31 31 32 32 32 32 32 32 32 32 32 32 33 33 33 34 34 33 33 33 31 30 29 28 28 27 27 27 28 28 28 28 28 28 27 26 25
27 26 26 26 26 27 28 29 29 30 31 31 32 31 31 31 30 31 32 32 32 32 32 32 31 31 30 28 27 26 26 26 25 26 27 27 27 27 28 27 27 25 23 23
27 27 27 26 26 26 27 27 28 29 29 30 30 29 29 30 30 31 31 32 31 31 30 30 29 27 26 25 24 23 24 24 25 26 26 26 26 27 27 26 25 23 22 21
25 25 25 25 25 26 26 27 27 28 28 28 28 28 28 28 28 29 30 30 30 29 28 27 26 24 23 22 23 23 24 24 25 25 26 26 25 25 25 24 23 23 21 20
24 24 24 24 24 24 25 25 26 26 26 26 27 27 27 27 27 27 27 27 26 26 25 24 23 22 22 22 23 24 25 25 25 26 25 25 24 23 23 22 21 21 19 16
23 23 23 23 23 23 23 24 25 25 25 26 26 26 26 26 26 25 24 24 24 24 23 22 22 22 22 22 23 24 24 24 24 24 24 23 22 21 20 20 19 18 15 12
22 23 23 23 23 22 22 23 24 25 25 25 25 25 25 24 24 23 23 23 22 22 22 22 22 22 22 23 22 22 22 22 22 22 22 21 20 19 18 17 16 14 12 10
23 22 23 23 22 22 22 23 23 23 24 23 23 22 22 22 22 22 22 22 22 22 22 21 21 21 21 20 20 20 20 21 21 20 20 19 18 16 15 14 13 12 11 9
22 21 21 22 21 21 22 21 22 22 22 22 21 21 21 21 21 22 22 22 21 21 21 20 20 20 20 19 19 19 19 19 19 19 19 18 16 14 13 13 12 11 10 9
21 21 21 21 22 21 21 20 20 21 21 21 20 20 20 20 21 21 21 20 20 20 20 19 20 20 19 18 19 19 19 19 18 18 17 16 14 13 12 11 11 11 10 8
21 21 21 21 21 21 20 20 19 19 19 20 20 20 19 19 20 20 20 20 19 19 19 19 19 19 19 18 18 18 18 18 17 16 15 14 13 12 11 11 11 10 9 8
20 19 19 19 20 20 20 19 19 19 19 19 19 19 19 19 19 19 19 19 18 18 18 18 18 18 18 18 18 18 18 18 17 15 14 13 12 11 11 10 10 10 9 9
18 17 18 18 18 18 18 18 18 18 17 17 17 18 19 19 19 19 19 18 18 18 18 17 17 18 18 18 17 17 17 16 15 14 14 13 12 11 11 11 10 10 9 8
17 17 17 17 17 17 17 16 16 16 16 16 16 17 17 18 18 18 18 18 18 17 17 17 17 17 16 16 16 15 14 13 13 13 13 13 12 12 11 10 10 10 9 8
Wind_Direction
246 247 248 248 250 252 254 256 258 259 261 264 266 268 270 272 274 277 280 283 284 286 287 289 290 292 292 292 293 295 294 293 292 291 292 293 294 295 296 296 296 297 296 295
245 248 249 249 250 252 254 256 258 259 260 263 265 267 269 272 274 278 281 283 285 286 287 289 291 292 292 293 294 295 294 293 293 293 294 295 295 296 297 297 298 299 298 298
246 248 251 251 252 253 255 256 258 259 260 261 264 267 270 272 274 278 282 284 285 285 286 289 291 292 292 293 294 295 294 294 295 295 295 296 297 298 298 298 299 300 299 299
248 249 251 252 253 254 255 255 257 258 259 261 263 266 269 272 275 278 282 284 285 285 286 289 290 291 292 292 293 294 294 294 295 295 296 297 298 299 298 298 299 300 301 301
250 252 253 252 254 256 257 256 258 259 260 261 263 266 269 273 275 279 281 284 285 286 287 288 290 291 291 292 294 294 294 293 295 295 295 297 298 298 298 299 300 301 302 303
250 253 254 252 254 255 257 257 257 259 260 261 263 266 269 272 275 278 280 283 285 287 288 288 290 291 291 292 293 294 294 294 295 295 296 297 298 299 299 300 302 303 304 304
251 254 255 254 256 257 258 259 258 259 259 260 263 267 269 271 275 277 280 282 284 286 287 288 290 291 292 293 293 294 294 294 294 295 296 298 300 300 300 301 303 303 305 305
251 254 256 256 257 258 259 258 258 259 260 261 263 266 269 272 275 276 278 281 283 285 286 287 289 291 292 293 294 295 294 294 294 295 296 298 300 301 302 303 304 304 306 307
250 253 256 257 256 256 257 257 258 260 261 263 265 267 270 272 275 277 279 281 282 284 285 286 288 290 292 294 294 294 293 294 294 296 297 299 301 302 304 304 305 304 305 307
251 252 255 256 256 257 257 258 258 259 261 263 266 268 270 272 274 276 279 281 282 283 283 284 286 289 291 293 294 294 294 294 295 297 298 300 302 304 305 306 306 305 305 306
250 251 253 255 257 257 256 257 259 260 262 263 265 268 271 272 274 276 277 278 280 282 284 286 287 288 289 290 292 293 293 294 295 297 298 300 301 304 305 306 307 306 305 305
251 251 253 254 255 256 257 258 258 260 262 263 266 268 270 272 274 275 275 277 280 283 285 287 288 288 289 289 290 291 291 291 293 295 297 300 302 303 304 306 307 306 304 305
252 253 255 256 256 255 256 257 258 260 262 265 267 269 271 273 276 275 275 277 281 283 286 288 288 288 289 289 289 290 290 291 293 295 297 299 301 303 304 305 306 305 304 305
254 256 257 258 258 256 257 259 259 260 262 265 268 272 273 275 275 275 275 277 281 284 286 287 288 288 288 288 288 288 289 291 293 294 297 299 302 303 304 306 306 305 305 306
253 255 258 260 261 260 260 261 261 262 263 266 269 271 272 273 273 274 275 276 280 283 285 287 288 289 288 286 286 288 291 293 293 294 298 301 303 304 305 306 306 306 305 306
252 254 256 260 262 262 262 261 260 261 264 268 270 271 272 272 272 274 276 277 279 282 284 286 287 287 286 285 286 289 293 295 296 298 301 303 304 304 304 305 306 307 305 305
252 254 257 259 261 261 261 261 261 262 263 266 268 270 272 274 275 276 277 278 279 281 283 284 286 286 285 286 287 290 293 295 297 300 303 304 305 304 304 304 306 307 306 304
251 254 257 259 261 261 261 261 261 262 263 266 268 270 271 274 277 278 278 278 279 281 281 281 283 286 286 287 288 290 293 296 299 302 304 305 305 305 304 305 306 308 306 303
250 253 257 259 260 261 261 263 263 264 266 268 269 270 272 274 276 277 277 278 279 280 280 281 283 285 288 290 291 293 294 296 299 302 303 303 303 303 304 304 306 307 304 300
253 255 257 259 261 262 263 263 264 264 266 269 269 269 269 271 273 274 275 278 280 280 280 282 283 286 290 292 294 296 297 298 299 302 303 304 303 303 303 304 306 306 303 300
254 256 258 261 262 264 266 266 265 265 267 269 269 269 269 271 272 272 274 277 280 280 280 281 284 286 289 291 294 297 298 298 299 301 303 304 303 301 300 300 302 299 295 292
257 258 260 260 262 265 268 268 267 266 266 267 267 269 270 270 272 273 275 277 278 280 281 283 285 286 287 291 294 295 296 297 298 300 301 302 300 296 294 294 296 297 293 288
260 261 261 261 263 266 268 270 270 269 267 266 268 270 270 271 272 274 275 275 277 278 280 282 284 286 287 290 292 294 295 295 296 299 301 299 295 292 290 289 290 292 290 287
259 260 261 260 261 264 266 267 269 270 269 268 269 270 271 272 274 275 275 274 274 275 277 280 282 285 287 289 291 292 293 293 294 295 297 297 292 287 285 284 285 285 284 280
259 259 260 260 260 261 262 263 265 268 269 269 269 270 272 274 275 275 274 274 275 276 279 281 283 285 286 289 291 292 292 291 290 289 291 291 289 287 284 284 284 281 279 275
260 261 261 261 259 260 261 263 265 267 268 270 273 274 275 275 275 275 275 276 277 279 281 283 285 285 286 288 290 291 291 289 287 288 288 286 285 285 284 282 281 279 275 268
258 261 261 260 260 260 260 263 266 268 271 274 277 279 279 278 277 275 275 275 277 280 281 283 285 285 286 288 289 290 290 289 288 287 285 282 279 278 278 278 278 274 268 255
Height
5576 5579 5582 5585 5588 5591 5593 5595 5598 5602 5603 5606 5605 5604 5604 5603 5602 5602 5601 5599 5596 5594 5591 5588 5585 5581 5578 5574 5570 5566 5562 5558 5555 5552 5548 5545 5542 5538 5534 5530 5526 5522 5517 5514
5566 5569 5571 5574 5578 5581 5584 5586 5588 5591 5594 5596 5594 5594 5594 5594 5593 5593 5592 5590 5587 5584 5581 5578 5575 5572 5568 5564 5560 5556 5552 5548 5545 5542 5539 5536 5532 5528 5524 5520 5516 5511 5507 5503
5556 5559 5560 5565 5571 5573 5575 5578 5579 5581 5586 5585 5585 5585 5585 5584 5584 5583 5582 5580 5578 5575 5572 5569 5565 5562 5558 5554 5551 5547 5543 5539 5536 5533 5530 5526 5523 5519 5515 5511 5507 5502 5498 5493
5546 5550 5551 5560 5562 5563 5565 5568 5570 5572 5574 5575 5576 5576 5575 5575 5574 5574 5573 5571 5568 5565 5563 5559 5556 5552 5549 5545 5542 5538 5534 5531 5528 5524 5521 5517 5514 5510 5506 5502 5498 5493 5489 5484
5536 5538 5542 5549 5552 5553 5555 5558 5560 5562 5564 5565 5565 5566 5567 5566 5565 5564 5563 5561 5558 5556 5553 5550 5547 5543 5540 5536 5533 5529 5525 5522 5519 5516 5512 5509 5505 5501 5497 5493 5489 5485 5480 5475
5527 5529 5533 5541 5542 5542 5545 5547 5550 5551 5553 5554 5555 5557 5558 5556 5555 5554 5553 5551 5549 5546 5544 5541 5538 5534 5531 5528 5524 5520 5517 5513 5510 5507 5503 5500 5496 5493 5489 5485 5481 5476 5472 5467
5518 5520 5524 5530 5532 5533 5536 5539 5540 5541 5542 5544 5545 5546 5547 5546 5545 5545 5544 5542 5539 5537 5534 5531 5528 5525 5522 5519 5515 5512 5508 5505 5501 5498 5495 5491 5488 5484 5480 5476 5473 5469 5465 5460
5509 5512 5518 5520 5521 5523 5525 5527 5528 5530 5532 5533 5535 5535 5536 5536 5536 5535 5534 5532 5530 5527 5525 5522 5519 5516 5513 5510 5507 5503 5500 5497 5493 5490 5486 5483 5480 5476 5472 5468 5465 5461 5458 5454
5502 5507 5508 5509 5511 5513 5514 5517 5518 5520 5522 5523 5524 5525 5526 5526 5526 5525 5524 5522 5520 5518 5516 5513 5510 5507 5504 5501 5498 5495 5492 5489 5486 5482 5479 5475 5472 5468 5465 5461 5457 5454 5450 5446
5493 5497 5499 5500 5501 5503 5504 5506 5508 5510 5512 5514 5515 5515 5516 5516 5516 5515 5514 5512 5510 5508 5506 5504 5502 5499 5495 5492 5489 5486 5484 5481 5478 5475 5472 5468 5464 5461 5457 5453 5450 5446 5442 5439
5484 5488 5489 5491 5492 5493 5495 5497 5498 5500 5502 5504 5505 5506 5506 5506 5506 5505 5504 5502 5501 5499 5497 5495 5492 5490 5487 5484 5481 5478 5476 5473 5470 5467 5464 5461 5458 5454 5450 5447 5442 5439 5435 5432
5477 5479 5480 5482 5483 5484 5486 5488 5490 5491 5493 5494 5495 5496 5496 5496 5496 5495 5494 5493 5492 5490 5488 5486 5483 5481 5478 5475 5473 5470 5468 5465 5463 5460 5457 5455 5452 5449 5444 5440 5436 5432 5428 5425
5468 5470 5472 5473 5474 5476 5477 5479 5481 5482 5484 5485 5486 5486 5486 5486 5486 5485 5485 5483 5482 5481 5479 5476 5474 5471 5468 5466 5464 5462 5459 5457 5455 5453 5450 5448 5445 5442 5439 5436 5431 5426 5423 5420
5461 5462 5464 5465 5466 5468 5469 5470 5472 5473 5475 5476 5477 5477 5477 5477 5477 5476 5475 5474 5473 5472 5470 5468 5465 5463 5460 5458 5456 5454 5452 5450 5448 5446 5444 5441 5438 5435 5432 5429 5426 5423 5418 5415
5454 5455 5456 5458 5459 5460 5461 5462 5463 5465 5466 5467 5468 5468 5468 5468 5468 5467 5466 5465 5464 5463 5461 5459 5457 5454 5452 5450 5449 5447 5445 5443 5441 5439 5437 5434 5431 5428 5425 5422 5419 5416 5413 5410
5447 5448 5449 5451 5451 5452 5453 5454 5456 5457 5458 5459 5459 5459 5459 5459 5459 5459 5458 5457 5456 5455 5453 5450 5449 5447 5445 5443 5442 5441 5439 5437 5435 5433 5431 5428 5425 5422 5419 5416 5413 5410 5408 5405
5440 5441 5443 5444 5444 5445 5446 5447 5448 5449 5450 5451 5451 5451 5451 5451 5450 5450 5449 5448 5447 5446 5444 5443 5441 5440 5439 5437 5436 5434 5432 5431 5429 5427 5424 5422 5419 5416 5413 5411 5408 5405 5403 5400
5433 5435 5436 5437 5438 5438 5439 5440 5441 5442 5442 5443 5443 5443 5443 5443 5442 5442 5441 5440 5439 5438 5437 5436 5434 5433 5432 5431 5429 5428 5426 5424 5422 5420 5418 5415 5413 5410 5408 5405 5403 5401 5398 5396
5427 5428 5430 5430 5431 5432 5432 5433 5434 5434 5435 5435 5435 5435 5435 5435 5435 5434 5433 5433 5432 5431 5430 5429 5428 5427 5426 5424 5422 5421 5419 5417 5416 5413 5411 5409 5407 5405 5402 5400 5398 5396 5395 5393
5421 5422 5423 5424 5425 5426 5426 5426 5427 5427 5428 5428 5428 5428 5428 5428 5427 5427 5427 5426 5425 5425 5424 5423 5422 5420 5419 5417 5415 5414 5412 5411 5409 5407 5405 5403 5401 5400 5398 5396 5394 5393 5391 5390
5415 5416 5417 5418 5419 5419 5420 5420 5420 5421 5421 5421 5421 5421 5421 5421 5421 5420 5420 5420 5419 5418 5417 5416 5415 5414 5412 5411 5409 5408 5407 5405 5404 5402 5400 5398 5396 5395 5393 5392 5391 5389 5388 5388
5410 5411 5411 5412 5412 5413 5413 5413 5414 5414 5414 5414 5414 5414 5414 5414 5414 5414 5414 5413 5413 5412 5411 5410 5409 5408 5407 5405 5404 5403 5401 5400 5398 5397 5395 5393 5392 5390 5389 5388 5387 5386 5385 5385
5404 5404 5405 5406 5407 5407 5407 5407 5407 5407 5408 5408 5408 5408 5408 5408 5408 5408 5408 5407 5406 5405 5405 5404 5403 5402 5401 5400 5399 5397 5396 5394 5393 5391 5390 5388 5387 5386 5385 5384 5384 5383 5382 5382
5398 5398 5399 5400 5400 5401 5401 5402 5402 5402 5402 5402 5402 5402 5402 5402 5402 5401 5401 5401 5400 5399 5399 5398 5397 5396 5395 5394 5393 5392 5390 5389 5387 5386 5385 5384 5383 5382 5381 5381 5380 5380 5380 5379
5391 5392 5393 5394 5394 5395 5395 5396 5396 5396 5396 5396 5396 5396 5396 5396 5396 5395 5395 5395 5394 5393 5393 5392 5391 5390 5389 5388 5387 5386 5385 5383 5382 5381 5381 5380 5379 5378 5378 5377 5376 5376 5377 5377
5386 5387 5387 5388 5389 5389 5390 5390 5390 5391 5391 5391 5391 5391 5390 5390 5390 5389 5389 5389 5388 5388 5387 5386 5385 5384 5384 5383 5381 5380 5379 5378 5377 5376 5376 5375 5375 5374 5374 5373 5373 5373 5373 5374
5381 5381 5382 5383 5383 5384 5384 5385 5385 5385 5385 5385 5385 5385 5385 5384 5384 5383 5383 5383 5382 5382 5381 5380 5380 5379 5378 5377 5376 5375 5374 5373 5372 5372 5371 5371 5371 5370 5370 5370 5370 5370 5370 5371